NOAA 16 DEB

Satellite information

Favourite Embed

Satellite Type and Status

DEBRISIN ORBIT

Key statistics

Satellite NOAA 16 DEB at a glance.

Uptime

9215

Days in orbit

Revolutions

≈ 14.3

Per day

Orbit

SSO

Sun Synchronous Orbit

Inclination

98.8

Latest

Satellite identification and parameters

Extended collection of information and parameters for NOAA 16 DEB.

Object identification

Identified? True

Debris? True

Object name: NOAA 16 DEB

International designator: 2000-055NJ

Object number (NORAD): 41534

Object ID (CCSDS): 41534

Country: UNITED STATES OF AMERICA (US)

Current information (Y/N): Y

RCS size: SMALL

Orbital parameters

Period: 100.553 minutes

Inclination: 98.8176 deg

SMA: 7162.904 km

Apoapsis: 796.588 km

Periapsis: 772.949 km

RAAN: 66.0374 deg

Eccentricy: 0.00165014

Argument of periapsis: 9.3872 deg

Mean anomaly: 350.7616 deg

Mean motion: 14.32086012 rev/day

Mean motion (dot): 0.0001179 rev/day2

B* drag term: 0.0043898962 1/REarth

Two-line elements (TLE)

Creation date: Dec. 12, 2025, 3:16 a.m.

Reference frame: TEME

Reference center: EARTH

Epoch: Dec. 11, 2025, 4:40 p.m. UTC

TLE line 0: 0 NOAA 16 DEB

TLE line 1: 1 41534U 00055NJ 25345.69451006 .00011790 00000-0 43899-2 0 9990

TLE line 2: 2 41534 98.8176 66.0374 0016501 9.3872 350.7616 14.32086012496482

Live tracking on map

Real-time ground track for satellite NOAA 16 DEB.

In-orbit conjunctions

A list of the most updated potential collisions computed for object NOAA 16 DEB.

Target Orbit TCA Probability of collision Miss distance Type
SL-3 R/B LEO 2025-01-29 14:19:54 0.0001619675 38.0 (m) ROCKET BODY
FENGYUN 1C DEB SSO 2024-11-08 23:41:15 0.000111386 402.0 (m) DEBRIS
METEOR 2-5 DEB LEO 2024-09-20 05:40:19 0.0002179247 90.0 (m) DEBRIS
DMSP 5D-2 F12 (USA 106) SSO 2024-06-12 02:17:33 0.000186736 744.0 (m) PAYLOAD

Associated space launch

The NOAA K, L and M POES satellites begin the fifth generation of improved environmental monitoring in support of NOAA missions. The instrument payload has significant improvements and additions/deletions. The instrument changes have effected the spacecraft subsystems and data formats.

NOAA 16 DEB was lifted into orbit during the mission ‘Titan II SLV | NOAA 16’, on board a Titan II SLV space rocket.

The launch took place on Sept. 21, 2000, 10:22 a.m. from Space Launch Complex 4W.

For more information about the launch, click the button.

Launch to space Titan II SLV | NOAA 16
Titan II SLV | NOAA 16

Agency: N/A

Status: Launch Successful

Launch date: Sept. 21, 2000, 10:22 a.m. UTC

Rocket: Titan II SLV

Launch pad: Space Launch Complex 4W

Location: Vandenberg SFB, CA, USA

...

Latest news about this satellite

There are no fresh news available about this satellite. Check back as we update our databases every day.


Newsletter sign-up

Weekly statistics, charts and insights to help you stay on top of the space industry.